Dewpoint
34 27 26 24 23 23 22 20 20 20 19 21 27 26 20 21 19 19 19 17 17 17 17 18 18 17 18 18 18 19 19 20 19 18 19 20 20 20 20 21 22 21 20 28 25 25 25 25 24 22 21 23 22 18 16 18 21 21 21 23 22 22 20 19 20 20 20 21 21 21 21 18 18 20 21 21 21 20 18 20 20 21 19 21 21 21
28 25 26 26 24 22 22 20 19 19 18 19 22 24 19 27 17 18 19 16 19 18 16 17 18 19 18 18 18 18 18 18 18 19 19 18 19 22 22 22 23 21 26 29 26 24 25 24 26 24 22 25 21 17 15 18 20 20 21 22 22 22 20 19 18 20 20 21 20 19 20 18 18 18 17 18 19 20 23 21 20 21 20 21 21 19
27 24 23 27 23 20 20 19 19 18 21 23 21 23 23 19 24 20 20 20 19 19 17 17 18 18 19 19 20 20 19 19 20 21 20 20 22 22 22 23 22 23 24 24 22 25 22 26 25 23 22 22 20 19 16 18 20 21 21 21 22 23 21 20 20 21 20 21 22 20 19 19 18 21 19 19 20 21 20 21 21 21 20 20 20 20
26 26 24 23 22 20 17 17 17 20 23 23 23 21 19 26 20 19 22 19 19 18 20 21 19 20 19 19 20 21 20 20 23 23 24 26 24 24 23 22 23 22 24 23 21 21 19 23 23 22 21 21 22 20 18 18 19 20 21 20 21 22 22 21 22 22 22 22 23 22 21 22 21 19 21 23 22 22 21 21 21 21 19 19 19 19
19 26 24 22 27 21 20 19 18 19 18 27 27 24 21 26 22 19 18 20 20 21 24 19 21 20 20 17 18 19 21 20 21 21 22 24 30 29 32 29 26 22 23 24 22 21 19 20 20 20 20 20 21 22 19 21 18 19 21 21 22 22 22 22 23 23 22 22 23 22 24 23 22 22 20 19 18 20 20 19 19 19 20 20 18 18
24 25 27 21 25 27 28 17 23 27 20 24 29 24 24 26 21 25 25 20 18 19 19 23 7 6 23 20 20 20 20 18 19 20 21 21 22 28 25 26 27 30 26 25 22 21 20 20 20 20 20 20 21 20 21 22 20 21 21 21 22 22 22 22 25 22 22 21 20 19 19 18 17 16 17 16 16 17 17 18 19 19 19 20 18 17
24 24 30 29 28 29 29 26 31 27 22 22 21 30 26 25 27 25 24 22 16 15 22 22 10 10 15 8 14 16 18 17 21 24 22 22 25 25 26 26 25 26 27 26 24 23 20 20 21 20 19 19 19 19 22 23 21 20 21 22 23 22 22 25 24 24 23 22 20 19 20 19 18 16 18 17 17 16 15 17 16 17 18 18 17 17
25 23 26 29 30 30 27 21 31 23 24 19 29 29 28 27 25 26 24 23 19 24 26 22 20 15 16 12 10 13 14 13 14 15 19 19 16 24 25 26 26 27 26 28 26 24 22 21 20 19 18 17 17 19 22 23 22 20 21 23 24 21 22 27 25 25 22 20 21 21 21 20 20 19 18 19 15 17 16 16 18 17 15 15 15 14
25 28 27 28 27 24 24 28 33 29 24 25 27 29 28 26 27 26 24 20 20 17 18 20 26 17 17 19 16 17 14 15 15 16 18 20 23 23 27 25 27 27 27 26 28 25 23 21 21 19 18 17 17 21 22 22 22 22 23 24 24 22 22 25 25 24 23 20 20 21 20 20 19 19 20 18 18 16 18 17 15 14 14 14 14 13
24 30 29 32 26 23 29 23 27 32 24 27 27 27 26 26 25 24 19 18 18 17 20 18 23 12 10 20 15 18 18 17 18 18 18 21 23 28 28 26 25 26 28 27 25 26 24 22 21 20 18 17 18 22 23 23 23 24 24 24 23 21 22 24 24 23 23 22 20 20 20 21 20 19 18 18 16 17 16 15 16 14 13 10 10 11
24 27 29 26 27 30 24 24 26 26 28 28 29 27 25 24 21 19 19 18 20 18 20 20 22 13 10 17 18 18 20 18 17 18 18 21 25 23 25 26 29 26 27 28 26 25 25 23 21 20 18 17 19 24 22 24 23 24 25 23 22 21 22 24 24 22 23 22 21 20 21 22 21 21 20 17 16 16 16 13 13 12 12 10 9 9
25 26 27 28 28 26 26 27 27 26 27 29 22 20 23 24 18 19 21 20 16 14 15 15 20 19 11 13 21 14 19 17 14 14 13 18 19 24 27 26 24 25 25 27 26 25 24 23 22 21 18 17 18 20 19 23 24 24 24 23 21 21 22 24 24 22 23 22 22 21 21 21 20 19 19 17 16 15 15 14 11 10 9 8 11 9
25 25 26 30 31 28 31 25 24 26 25 25 22 21 20 19 17 14 16 13 14 11 17 15 18 16 12 7 14 14 14 15 17 15 15 18 20 26 27 28 27 27 26 26 26 26 25 23 22 21 19 17 18 19 19 21 23 23 23 22 20 21 23 23 23 22 22 22 21 20 19 19 18 18 17 16 15 15 13 10 10 10 8 10 10 8
24 26 26 30 28 28 30 21 22 21 20 21 20 21 20 17 15 13 12 11 11 21 15 12 18 8 9 11 14 12 13 14 17 19 24 23 21 24 30 31 27 29 27 27 27 27 26 25 24 22 20 18 19 18 19 20 22 23 24 22 19 20 24 23 23 21 21 21 20 19 19 18 16 16 16 15 12 12 10 10 8 8 8 7 8 8
17 17 23 25 21 32 28 24 27 26 21 20 26 22 21 17 14 10 5 4 8 11 17 15 14 17 15 7 15 13 13 14 17 20 24 26 28 30 27 28 29 28 26 28 28 28 27 26 24 23 21 19 19 18 20 20 21 23 22 22 19 21 23 23 22 22 21 19 19 19 18 17 15 14 12 11 12 10 10 9 9 8 7 7 7 7
20 18 29 28 28 29 29 32 31 27 22 23 26 25 20 20 15 8 14 12 16 13 15 16 13 14 9 18 24 21 20 18 19 19 22 22 23 27 25 25 25 25 25 26 27 27 26 25 24 24 22 20 20 18 20 20 22 24 22 22 19 21 23 23 22 21 20 19 18 18 17 15 13 12 11 11 11 9 10 9 7 7 7 7 7 8
17 14 25 27 26 24 23 28 28 29 20 20 22 22 21 24 15 14 21 20 18 15 13 20 11 16 14 14 15 16 17 17 19 17 18 19 22 26 27 28 26 27 27 27 27 27 25 24 24 23 22 20 19 19 20 20 22 22 23 22 19 21 23 22 21 21 19 19 17 17 15 14 13 11 11 9 9 8 8 8 8 7 7 8 8 11
20 22 25 27 24 24 21 22 27 27 27 22 20 20 28 30 26 19 11 18 14 10 15 19 17 11 13 12 18 15 15 15 17 17 17 20 24 23 27 30 29 30 29 27 26 26 25 24 23 23 22 20 19 19 19 19 22 22 24 21 21 22 22 21 20 20 19 18 16 15 14 12 11 9 9 9 7 7 7 8 7 8 9 8 10 10
27 17 23 23 23 25 24 26 24 27 26 21 20 31 17 15 15 15 15 11 10 12 13 13 13 15 13 12 13 13 15 15 14 16 17 17 20 22 25 26 27 27 28 27 24 24 24 24 23 22 22 21 19 19 19 20 22 23 23 22 21 21 21 21 20 19 18 16 17 16 13 10 9 7 6 6 6 6 7 7 8 8 9 10 10 10
31 18 17 24 23 24 23 23 20 20 25 26 24 20 21 15 22 18 15 18 12 12 12 14 17 12 18 13 15 12 15 18 15 16 16 17 18 20 23 26 27 28 28 27 26 25 25 24 22 21 21 20 19 19 20 20 23 21 22 22 21 21 20 20 19 18 15 15 14 13 10 9 7 5 5 5 5 4 5 5 6 7 8 9 9 9
22 20 17 20 24 24 18 20 20 22 21 18 16 16 14 22 19 19 15 18 12 12 10 10 11 13 16 12 13 12 9 15 16 18 22 21 20 21 23 26 28 27 29 28 27 25 24 23 21 20 19 19 18 20 21 22 21 20 22 21 21 20 19 19 17 15 13 13 11 10 7 6 5 4 2 3 4 5 5 5 7 7 8 7 5 5
24 18 19 18 18 17 21 25 27 29 26 21 17 16 16 18 16 14 15 17 19 12 12 9 12 15 15 8 11 12 11 18 19 20 22 23 20 21 25 25 26 29 26 26 26 25 24 22 20 15 15 15 15 15 17 20 20 21 21 20 20 19 17 16 15 13 11 10 8 7 5 3 3 2 1 3 3 4 4 4 4 3 4 5 4 4
25 22 22 21 20 22 25 21 21 23 27 24 20 19 22 17 17 15 13 19 16 17 18 16 13 14 19 17 19 19 16 15 21 21 21 22 22 22 24 26 27 26 28 27 25 24 22 21 20 16 13 14 12 15 15 19 20 20 19 19 19 17 15 14 13 10 9 6 3 2 1 -1 -4 -5 -2 -1 -1 1 2 2 2 2 2 2 2 3
29 24 21 19 23 20 19 20 22 21 26 21 21 21 20 15 17 16 17 13 15 16 14 14 12 15 20 21 18 20 24 24 21 22 22 22 22 23 25 27 26 26 25 25 25 22 21 17 17 15 14 14 14 15 16 19 19 19 19 18 16 14 14 10 8 6 3 -1 -4 -3 -8 -9 -9 -6 -4 -3 -2 -1 -0 -1 0 2 2 2 1 -0
22 23 20 21 22 21 20 18 18 20 22 18 18 19 22 23 21 20 20 17 14 17 14 13 12 15 21 22 24 22 20 19 18 19 21 24 25 29 25 26 27 25 24 22 22 21 19 14 14 15 15 15 14 15 15 17 18 17 16 14 12 11 9 5 3 -1 -5 -8 -10 -11 -12 -10 -7 -5 -4 -4 -3 -2 -1 0 1 1 1 -0 -1 -2
23 23 21 19 17 15 15 13 16 19 18 18 19 19 21 22 19 16 16 18 15 17 13 14 12 12 12 15 17 18 19 18 18 18 18 22 26 25 27 29 27 26 24 22 22 21 19 16 14 12 13 13 12 13 14 15 15 14 13 11 10 7 3 -1 -3 -7 -10 -13 -14 -13 -11 -8 -6 -5 -5 -3 -2 -1 -1 -0 0 -1 -1 -2 -2 -3
27 22 20 18 18 18 18 19 13 23 18 19 20 21 19 22 23 20 21 18 16 16 16 17 16 14 15 13 13 12 12 12 12 17 18 19 19 22 25 28 30 28 26 23 22 22 18 14 12 11 11 12 12 13 14 14 13 12 11 9 5 3 -1 -4 -8 -12 -13 -15 -14 -11 -9 -6 -5 -4 -3 -2 -1 -1 -0 -1 -1 -2 -2 -2 -3 -3
28 20 22 20 20 19 20 21 18 24 17 18 21 19 20 21 24 24 20 17 17 18 14 19 20 21 18 16 16 15 15 15 15 14 14 19 23 25 24 24 26 22 23 23 20 19 16 15 12 11 11 11 11 12 13 13 12 11 9 6 2 -1 -5 -8 -11 -14 -15 -14 -11 -8 -7 -5 -4 -2 -2 -1 -1 -1 -1 -2 -2 -3 -3 -2 -3 -3
20 20 23 23 21 20 19 16 16 16 16 15 19 20 18 20 24 23 23 21 19 18 15 17 19 20 18 16 16 15 16 16 16 14 14 16 19 22 26 24 23 21 21 20 20 18 16 13 12 11 10 10 11 12 12 12 11 9 6 3 -2 -5 -8 -11 -13 -14 -14 -11 -9 -7 -5 -3 -2 -2 -1 0 -1 -1 -2 -2 -3 -2 -2 -2 -2 -2
25 22 23 23 22 22 22 22 22 19 14 15 16 19 20 20 21 22 22 23 21 19 20 21 20 18 17 15 14 15 18 19 17 18 20 21 21 22 23 24 25 25 22 20 19 19 17 14 12 11 10 10 11 11 12 11 9 7 3 -1 -4 -7 -9 -12 -14 -14 -11 -8 -6 -5 -3 -2 -1 -1 -1 -1 -2 -2 -2 -3 -2 -2 -1 -1 -1 -1
23 22 26 23 22 22 21 22 21 20 18 17 18 21 21 17 16 20 23 23 24 20 21 21 21 20 20 19 19 21 21 21 20 19 18 20 21 21 21 22 22 22 26 24 20 19 17 13 12 11 10 10 11 11 12 11 9 6 1 -3 -6 -9 -10 -13 -13 -10 -8 -6 -4 -3 -2 -2 -1 -1 -1 -1 -2 2 0 -1 0 0 1 0 0 0
26 24 26 24 21 21 23 22 21 20 20 19 18 19 19 19 17 19 20 20 20 21 19 20 21 20 19 20 20 21 19 20 20 20 21 21 22 21 23 23 23 24 25 27 23 19 15 14 12 11 10 10 11 11 11 9 6 3 -0 -5 -7 -9 -10 -11 -9 -7 -5 -4 -3 -2 -1 -1 -0 0 0 -0 2 2 2 1 1 1 2 2 1 2
27 25 23 23 21 21 25 26 25 24 23 23 23 20 21 20 21 21 22 23 22 22 21 21 20 19 20 21 20 20 19 20 21 21 23 22 23 24 24 24 24 24 24 25 24 19 16 14 13 12 11 11 11 11 10 8 5 3 -1 -5 -7 -8 -9 -8 -6 -5 -3 -2 -1 -1 -0 0 2 2 2 2 1 1 1 1 1 1 2 2 2 2
29 27 24 26 22 22 26 27 27 23 19 19 24 26 25 23 23 21 21 22 23 22 21 21 20 21 21 22 23 21 22 22 23 24 25 24 26 26 25 25 24 24 25 26 25 21 18 16 13 12 11 11 11 11 10 7 5 1 -2 -5 -6 -6 -7 -5 -3 -2 0 1 2 0 -0 0 3 2 2 0 0 -0 0 -0 1 1 1 1 3 3
28 28 25 27 24 23 25 27 23 19 19 25 35 30 26 24 23 24 23 22 22 22 22 21 21 22 22 23 23 23 23 23 24 23 23 23 26 26 25 24 25 25 25 25 26 24 20 16 13 12 11 12 12 9 7 3 0 -3 -3 -4 -4 -5 -2 -1 -0 1 1 2 1 0 1 0 1 0 -0 -0 0 0 0 -1 0 1 2 2 2 3
28 27 26 26 25 25 24 24 19 16 25 30 27 26 28 25 24 23 23 25 23 23 24 24 23 22 23 23 24 25 24 24 24 25 25 25 27 28 28 27 26 25 26 27 26 24 20 16 14 12 11 16 12 8 6 2 -1 -1 -1 -2 -1 -1 -0 2 4 2 1 2 1 0 -1 0 0 -0 -0 -1 -0 -1 -0 0 1 1 1 1 1 2
30 29 27 25 28 23 22 22 22 28 25 27 27 26 25 23 24 24 23 23 23 23 23 23 23 23 23 24 24 24 24 24 24 24 25 25 28 28 28 27 27 27 28 28 29 26 22 16 16 15 12 11 9 5 5 0 2 2 0 1 3 3 3 4 4 3 1 1 -0 -1 -1 -0 -0 -1 -1 -1 -0 -0 -0 0 1 0 0 0 0 1
30 29 30 27 26 28 23 22 22 22 20 22 26 27 25 26 25 29 24 24 25 23 23 23 23 22 23 23 23 24 29 22 22 23 24 25 27 29 28 29 29 29 29 29 27 23 18 16 15 15 11 11 9 5 2 2 4 2 2 2 1 4 2 4 3 1 2 -0 0 -2 -3 -0 -0 -0 -1 -0 -1 -1 -0 -1 -0 -0 -1 -1 -1 -1
32 31 31 28 26 27 26 22 20 18 20 26 26 26 26 26 29 25 23 22 23 23 24 23 22 23 23 23 23 23 26 22 23 23 25 25 27 29 28 29 28 28 28 27 25 19 17 18 16 15 13 9 7 3 1 5 6 4 3 3 1 2 3 2 1 1 0 -2 -4 -4 -2 -2 -2 -1 -1 -1 -1 -1 -2 -1 -1 -1 -1 -2 -2 -1
31 31 30 28 26 27 25 24 21 23 23 26 26 25 24 27 29 26 20 20 24 24 24 24 23 23 24 24 23 24 24 23 24 24 25 26 28 28 28 27 26 25 22 17 17 16 13 13 14 12 13 11 9 6 6 6 6 6 2 2 3 2 4 4 2 -1 -3 -5 -5 -3 -3 -2 -2 -2 -2 -2 -2 -2 -3 -2 -3 -2 -3 -3 -3 -3
29 30 30 25 25 26 27 24 25 25 29 31 27 26 27 29 25 21 18 22 23 23 24 24 25 25 25 24 24 24 25 24 24 25 25 21 21 21 19 20 23 22 18 14 14 19 13 12 12 13 14 12 5 5 5 5 6 4 3 1 3 3 2 1 -2 -3 -5 -5 -4 -3 -3 -3 -3 -3 -3 -3 -3 -2 -3 -3 -3 -4 -4 -4 -3 -3
28 29 29 29 26 25 25 24 23 25 30 34 30 29 28 27 20 20 23 24 24 24 25 25 25 25 26 25 24 24 24 25 26 25 23 20 21 22 18 16 14 14 15 18 20 17 14 13 14 13 10 6 4 5 5 7 7 4 3 3 3 4 -1 -2 -4 -5 -4 -4 -4 -4 -3 -3 -3 -5 -5 -4 -4 -3 -4 -4 -5 -5 -5 -5 -5 -3
27 28 23 26 27 27 26 24 23 20 30 30 30 26 27 24 23 24 24 26 27 26 26 25 26 26 26 25 26 27 25 24 25 25 25 26 23 20 17 13 13 13 13 14 15 16 14 13 12 10 7 4 4 4 6 8 8 5 4 4 4 -1 -3 -5 -6 -5 -5 -4 -5 -5 -5 -5 -6 -5 -5 -5 -5 -4 -5 -5 -5 -5 -5 -4 -4 -3
30 26 24 26 27 24 23 22 21 24 27 32 27 25 26 25 25 26 26 24 27 27 26 25 25 27 26 26 25 25 25 25 25 26 26 27 27 24 19 14 14 14 14 13 14 14 15 13 10 7 3 2 4 5 6 9 8 6 5 5 -2 -2 -3 -4 -5 -5 -5 -6 -6 -6 -6 -6 -6 -5 -5 -6 -5 -7 -6 -7 -7 -6 -6 -5 -4 -3
30 27 28 25 28 27 25 25 26 26 26 28 28 26 26 27 27 27 27 26 25 25 27 25 26 27 27 27 26 25 26 26 26 26 27 27 27 27 22 17 15 14 14 13 12 15 14 11 9 5 2 -0 2 4 7 9 8 6 6 2 -1 -1 -4 -5 -5 -6 -7 -7 -7 -7 -7 -6 -6 -6 -6 -6 -7 -7 -7 -7 -7 -7 -6 -5 -4 -3
30 29 29 27 25 28 28 28 30 27 27 28 29 28 27 27 28 28 28 27 27 26 26 25 26 27 27 28 28 28 27 26 27 27 28 28 29 28 23 18 17 16 14 14 14 15 13 11 9 5 2 0 1 2 6 7 8 3 6 -1 -1 -3 -4 -5 -7 -7 -7 -7 -8 -8 -7 -7 -7 -6 -7 -6 -7 -7 -8 -8 -8 -8 -7 -5 -4 -3
33 33 33 28 29 27 27 28 27 27 27 28 27 29 29 28 27 27 28 28 27 27 27 27 27 27 27 30 29 27 27 27 28 28 28 30 31 29 26 26 24 18 16 15 13 13 12 10 6 4 3 1 -0 2 4 6 5 6 1 -1 -2 -3 -6 -8 -8 -8 -8 -8 -8 -8 -7 -6 -7 -8 -8 -8 -8 -9 -9 -8 -8 -7 -7 -5 -4 -2
32 36 32 32 33 29 29 32 37 34 29 28 28 28 28 28 28 28 28 28 28 28 28 27 28 29 29 30 29 28 28 28 28 29 30 31 32 32 29 26 23 19 15 14 12 13 11 9 7 4 3 1 0 2 4 5 6 2 -0 -1 -3 -5 -7 -8 -8 -9 -9 -8 -8 -8 -7 -6 -7 -7 -8 -8 -8 -9 -10 -9 -8 -7 -5 -4 -3 -1
32 33 28 32 30 32 33 33 34 33 33 32 31 30 29 29 29 28 28 28 28 28 28 29 29 28 28 28 28 29 30 30 30 30 31 32 32 31 29 26 23 19 15 13 12 11 9 9 7 5 3 2 1 2 3 4 1 -1 -1 -2 -5 -7 -7 -8 -8 -8 -8 -8 -8 -8 -7 -7 -7 -7 -8 -9 -9 -9 -8 -10 -9 -6 -2 1 2 5
32 29 32 32 29 28 29 31 34 31 29 31 33 36 40 39 39 37 37 36 32 31 30 29 29 29 30 29 29 30 31 30 30 31 32 32 33 31 30 27 22 18 16 14 12 11 10 9 7 4 3 2 2 2 2 1 -2 -2 -2 -6 -7 -7 -7 -8 -9 -8 -8 -7 -7 -7 -9 -9 -10 -9 -9 -9 -10 -10 -9 -7 3 3 1 1 8 11
27 27 28 27 27 25 29 32 32 32 32 32 32 32 32 34 36 36 33 32 32 33 33 31 30 30 30 31 31 31 31 30 30 31 31 32 32 32 31 27 20 16 15 12 9 8 9 7 7 4 3 1 1 1 -0 -2 -4 -4 -6 -7 -7 -6 -7 -8 -9 -9 -8 -8 -9 -9 -9 -9 -9 -9 -9 -8 -9 -10 -10 -11 -7 6 7 7 8 10